Regional Weather Roundup
Issued by NWS

Home | Current Version | Previous Version | Graphics & Text | Print | Product List | Glossary On
Versions: 1 2 3 4 5 6 7 8 9 10 11 12 13 14 15 16 17 18 19 20 21 22 23 24 25 26 27 28 29 30 31 32 33 34 35 36 37 38 39 40 41 42 43 44 45 46 47 48 49 50
000
ASUS45 KSLC 271310
RWRUT

UTAH REGIONAL WEATHER ROUNDUP
NATIONAL WEATHER SERVICE SALT LAKE CITY UT
600 AM MST TUE JAN 27 2015

UTZ001>011-023>025-271400-

NORTHERN UTAH

CITY           SKY/WX    TMP DP  RH WIND       PRES   REMARKS
BRIGHAM CITY   PTCLDY    30  28  93 CALM      30.19S
HILL AFB       PTCLDY    37  25  63 SE15      30.16F WCI  28
LOGAN          CLEAR     27  25  92 W3        30.17F
OGDEN          PTCLDY    33  29  85 S3        30.16F
PROVO AIRPORT  MOCLDY    28  27  93 CALM      30.19S
SALT LAKE CITY PTCLDY    30  28  92 SE3       30.17F FOG
VERNAL         PTCLDY    21  17  84 NW3       30.31F
WENDOVER       CLOUDY    28  25  86 E5        30.18R WCI  23
HEBER CITY     MOCLDY    23  21  93 CALM      30.22S
WEST JORDAN    CLEAR     36  32  87 S3        30.18S

$$

UTZ012>022-026-027-271400-

SOUTHERN/CENTRAL UTAH

CITY           SKY/WX    TMP DP  RH WIND       PRES   REMARKS
BLANDING       CLEAR     34  25  71 CALM      30.38S
BRYCE CANYON   LGT SNOW  32  31  96 SE7       30.31F VSB 1   WCI  26
CEDAR CITY     LGT RAIN  38  35  89 S9        30.25R WCI  31
DELTA          CLOUDY    32  31  96 S5        30.20S WCI  27
MILFORD        LGT RAIN  39  33  79 S14       30.24R WCI  31
MOAB/CYNLANDS  CLEAR     31  26  82 CALM      30.27S
PRICE          MOCLDY    31  23  72 NE9       30.27F WCI  23
ST GEORGE      CLOUDY    46  43  87 CALM      30.27R
KANAB            N/A     41  39  93 NW8       30.31R

$$

REGIONAL REPORTS     COLORADO/ARIZONA

CITY           SKY/WX    TMP DP  RH WIND       PRES   REMARKS
CRAIG, CO      CLEAR     11   7  84 W3        30.31
GRAND JUNCTION PTCLDY    32  25  75 NE3       30.27F
RIFLE          PTCLDY    27  22  81 S3        30.33F
MONTROSE       MOCLDY    28  22  78 SE8       30.32F WCI  20
CORTEZ         CLEAR     27  22  81 E6        30.32R WCI  20
PAGE, AZ       NOT AVBL
GRAND CANYON   LGT RAIN  39  36  89 SE3       30.29S
KINGMAN        CLOUDY    46  43  89 SE9       30.23R
FLAGSTAFF      LGT RAIN  38  36  92 W5        30.31S WCI  34

$$

REGIONAL REPORTS    NEVADA/IDAHO/WYOMING

CITY           SKY/WX    TMP DP  RH WIND       PRES   REMARKS
LAS VEGAS, NV  CLOUDY    51  48  89 S3        30.18R
ELY            LGT RAIN  37  35  92 S13       30.21R WCI  29
ELKO           CLOUDY    33  27  78 E9        30.12S WCI  25
POCATELLO, ID  CLEAR     27  26  96 N5        30.13R WCI  22
BURLEY         MOCLDY    33  29  85 CALM      30.07R
EVANSTON, WY   PTCLDY    35  24  64 E8        30.23S WCI  29
ROCK SPRINGS   PTCLDY    27  22  81 E5        30.22F WCI  22

$$


USA.gov is the U.S. government's official web portal to all federal, state and local government web resources and services.